Weather History for Searcy, AR

Change the Weather History Date:

Friday, November 30, 2012

  Actual Average Record
Temperature  
Mean Temperature 48 °F -  
Max Temperature 64 °F 57 °F 76 °F (1933)
Min Temperature 32 °F 35 °F 14 °F (1976)
Degree Days  
Heating Degree Days 17    
Growing Degree Days 0 (Base 50)    
Moisture  
Dew Point 43 °F    
Average Humidity 76    
Maximum Humidity 96    
Minimum Humidity 58    
Precipitation  
Precipitation 0.00 in - - ()
Sea Level Pressure  
Sea Level Pressure 30.21 in    
Wind  
Wind Speed 3 mph (South)    
Max Wind Speed 9 mph    
Max Gust Speed -    
Visibility 10 miles    
Events      
Averages and records for this station are not official NWS values.
T = Trace of Precipitation, MM = Missing Value Source: NWS Daily Summary

Daily Weather History Graph

Daily Weather History Graph

Search for Another Location

Airport:

Trip Planner

Search our weather history database for the weather conditions in past years. The results will help you decide how hot, cold, wet, or windy it might be!

Date:

Astronomy

Nov. 30, 2012 Rise Set
Actual Time 6:56 AM CST 4:54 PM CST
Civil Twilight 6:28 AM CST 5:22 PM CST
Nautical Twilight 5:57 AM CST 5:54 PM CST
Astronomical Twilight 5:26 AM CST 6:24 PM CST
Moon 6:49 PM CST (11/30) 8:29 AM CST (11/30)
Length of Visible Light 10h 53m
Length of Day
9h 58m
Waning Gibbous, 96% of the Moon is Illuminated
Nov 30
Waning Gibbous
Dec 6
Last Quarter
Dec 13
New
Dec 19
First Quarter
Dec 28
Full

Hourly Weather History & Observations

Time (CST) Temp. Windchill Dew Point Humidity Pressure Visibility Wind Dir Wind Speed Gust Speed Precip Events Conditions
12:56 AM 34.0 °F - 32.0 °F 92% 30.25 in 10.0 mi Calm Calm - N/A   Clear
1:56 AM 34.0 °F - 32.0 °F 92% 30.25 in 10.0 mi Calm Calm - N/A   Clear
2:56 AM 32.0 °F - 30.2 °F 93% 30.23 in 10.0 mi Calm Calm - N/A   Clear
3:56 AM 34.9 °F - 32.0 °F 89% 30.25 in 10.0 mi Calm Calm - N/A   Clear
4:56 AM 32.9 °F - 31.1 °F 93% 30.25 in 10.0 mi Calm Calm - N/A   Clear
5:56 AM 32.0 °F - 31.1 °F 96% 30.25 in 10.0 mi Calm Calm - N/A   Scattered Clouds
6:56 AM 32.9 °F - 32.0 °F 96% 30.26 in 10.0 mi Calm Calm - N/A   Mostly Cloudy
7:56 AM 38.8 °F 35.4 °F 36.0 °F 89% 30.27 in 10.0 mi SSW 4.6 mph - N/A   Overcast
8:56 AM 43.9 °F 41.3 °F 37.9 °F 80% 30.29 in 10.0 mi SSW 4.6 mph - N/A   Mostly Cloudy
9:56 AM 50.0 °F - 37.9 °F 63% 30.28 in 10.0 mi South 6.9 mph - N/A   Mostly Cloudy
10:56 AM 52.0 °F - 38.8 °F 61% 30.27 in 10.0 mi SW 4.6 mph - N/A   Overcast
11:56 AM 54.9 °F - 41.0 °F 60% 30.24 in 10.0 mi Calm Calm - N/A   Overcast
12:56 PM 55.9 °F - 43.0 °F 62% 30.22 in 10.0 mi Calm Calm - N/A   Overcast
1:56 PM 59.0 °F - 45.9 °F 62% 30.19 in 10.0 mi Variable 3.5 mph - N/A   Overcast
2:56 PM 63.9 °F - 48.9 °F 58% 30.17 in 10.0 mi SSE 4.6 mph - N/A   Partly Cloudy
3:43 PM 64.4 °F - 50.0 °F 59% 30.15 in 10.0 mi SSW 9.2 mph - N/A   Mostly Cloudy
3:56 PM 63.9 °F - 50.9 °F 63% 30.17 in 10.0 mi South 5.8 mph - N/A   Mostly Cloudy
4:56 PM 61.0 °F - 50.0 °F 67% 30.17 in 10.0 mi South 9.2 mph - N/A   Mostly Cloudy
5:24 PM 60.8 °F - 50.0 °F 68% 30.16 in 10.0 mi SSE 8.1 mph - N/A   Mostly Cloudy
5:56 PM 59.9 °F - 50.0 °F 70% 30.19 in 10.0 mi South 5.8 mph - N/A   Overcast
6:45 PM 57.2 °F - 50.0 °F 77% 30.16 in 10.0 mi SSE 9.2 mph - N/A   Mostly Cloudy
6:56 PM 57.9 °F - 48.9 °F 72% 30.19 in 10.0 mi South 6.9 mph - N/A   Scattered Clouds
7:09 PM 55.4 °F - 48.2 °F 77% 30.17 in 10.0 mi South 5.8 mph - N/A   Mostly Cloudy
7:56 PM 59.0 °F - 50.9 °F 74% 30.19 in 10.0 mi SSW 5.8 mph - N/A   Overcast
8:23 PM 57.2 °F - 50.0 °F 77% 30.17 in 10.0 mi SW 3.5 mph - N/A   Mostly Cloudy
9:56 PM 57.9 °F - 50.0 °F 75% 30.19 in 10.0 mi SSW 6.9 mph - N/A   Overcast
10:56 PM 57.9 °F - 50.0 °F 75% 30.19 in 10.0 mi SSW 8.1 mph - N/A   Overcast
11:56 PM 57.2 °F - 50.0 °F 77% 30.18 in 10.0 mi South 4.6 mph - N/A   Mostly Cloudy